| time (UTC) | temp F | wind direction | speed MPH | gust MPH | rain 1hr in | rain 24hr in | rain mn in | humidity % | barometer mb |
| 20260504081609 | 47 | 176 | 3.0 | 6.0 | 0.00 | 0.00 | 0.00 | 65 | 1013.4 |
| 20260504081105 | 47 | 189 | 5.0 | 6.0 | 0.00 | 0.00 | 0.00 | 65 | 1013.1 |
| 20260504080602 | 47 | 189 | 5.0 | 5.0 | 0.00 | 0.00 | 0.00 | 63 | 1013.4 |
| 20260504050415 | 49 | 182 | 3.0 | 5.0 | 0.00 | 0.00 | 0.00 | 54 | 1014.3 |
| 20260504045912 | 49 | 186 | 4.0 | 4.0 | 0.00 | 0.00 | 0.00 | 55 | 1014.5 |
| 20260504045408 | 49 | 194 | 4.0 | 5.0 | 0.00 | 0.00 | 0.00 | 53 | 1014.3 |
| 20260504044904 | 48 | 180 | 2.0 | 5.0 | 0.00 | 0.00 | 0.00 | 55 | 1014.2 |
| 20260504044402 | 48 | 143 | 2.0 | 4.0 | 0.00 | 0.00 | 0.00 | 59 | 1014.1 |
| 20260504043859 | 48 | 188 | 5.0 | 5.0 | 0.00 | 0.00 | 0.00 | 55 | 1014.2 |
| 20260504043356 | 49 | 168 | 2.0 | 5.0 | 0.00 | 0.00 | 0.00 | 57 | 1014.2 |
| 20260504042853 | 49 | 177 | 2.0 | 5.0 | 0.00 | 0.00 | 0.00 | 56 | 1014.1 |
| 20260504042349 | 49 | 182 | 4.0 | 4.0 | 0.00 | 0.00 | 0.00 | 55 | 1014.2 |
| 20260504041846 | 49 | 189 | 4.0 | 4.0 | 0.00 | 0.00 | 0.00 | 54 | 1014.3 |
| 20260504041342 | 49 | 180 | 5.0 | 5.0 | 0.00 | 0.00 | 0.00 | 55 | 1014.3 |
| 20260504040838 | 49 | 187 | 3.0 | 5.0 | 0.00 | 0.00 | 0.00 | 52 | 1014.3 |
| 20260504040336 | 49 | 182 | 3.0 | 5.0 | 0.00 | 0.00 | 0.00 | 54 | 1014.3 |
| 20260504035831 | 49 | 180 | 3.0 | 5.0 | 0.00 | 0.00 | 0.00 | 52 | 1014.2 |
| 20260504035330 | 49 | 166 | 2.0 | 5.0 | 0.00 | 0.00 | 0.00 | 54 | 1014.0 |
| 20260504034826 | 49 | 180 | 3.0 | 4.0 | 0.00 | 0.00 | 0.00 | 54 | 1014.1 |
| 20260504034324 | 49 | 195 | 0.0 | 4.0 | 0.00 | 0.00 | 0.00 | 54 | 1014.3 |
| 20260504033821 | 49 | 180 | 2.0 | 5.0 | 0.00 | 0.00 | 0.00 | 52 | 1014.3 |
| 20260504033319 | 49 | 180 | 3.0 | 4.0 | 0.00 | 0.00 | 0.00 | 53 | 1014.4 |
| 20260504032815 | 49 | 187 | 3.0 | 5.0 | 0.00 | 0.00 | 0.00 | 51 | 1014.2 |
| 20260504032312 | 49 | 178 | 3.0 | 4.0 | 0.00 | 0.00 | 0.00 | 52 | 1014.3 |
| 20260504031809 | 49 | 172 | 2.0 | 5.0 | 0.00 | 0.00 | 0.00 | 52 | 1014.4 |
| 20260504031307 | 49 | 187 | 2.0 | 5.0 | 0.00 | 0.00 | 0.00 | 53 | 1014.3 |
| 20260504030803 | 49 | 188 | 3.0 | 4.0 | 0.00 | 0.00 | 0.00 | 52 | 1014.4 |
| 20260504030300 | 49 | 182 | 3.0 | 4.0 | 0.00 | 0.00 | 0.00 | 51 | 1014.5 |
| 20260504025756 | 49 | 178 | 3.0 | 5.0 | 0.00 | 0.00 | 0.00 | 50 | 1014.3 |
| 20260504025253 | 49 | 182 | 3.0 | 5.0 | 0.00 | 0.00 | 0.00 | 51 | 1014.4 |
| 20260504024749 | 49 | 174 | 3.0 | 4.0 | 0.00 | 0.00 | 0.00 | 52 | 1014.6 |
| 20260504024246 | 49 | 172 | 2.0 | 4.0 | 0.00 | 0.00 | 0.00 | 51 | 1014.5 |
| 20260504023743 | 49 | 186 | 4.0 | 4.0 | 0.00 | 0.00 | 0.00 | 51 | 1014.4 |
| 20260504023239 | 49 | 180 | 2.0 | 5.0 | 0.00 | 0.00 | 0.00 | 49 | 1014.6 |
| 20260504022735 | 49 | 173 | 2.0 | 4.0 | 0.00 | 0.00 | 0.00 | 52 | 1014.5 |
| 20260504022232 | 50 | 124 | 2.0 | 4.0 | 0.00 | 0.00 | 0.00 | 51 | 1014.4 |
| 20260504021729 | 50 | 180 | 3.0 | 3.0 | 0.00 | 0.00 | 0.00 | 50 | 1014.5 |
| 20260504021226 | 50 | 180 | 3.0 | 5.0 | 0.00 | 0.00 | 0.00 | 49 | 1014.4 |
| 20260504020723 | 50 | 178 | 3.0 | 4.0 | 0.00 | 0.00 | 0.00 | 51 | 1014.3 |
| 20260504020220 | 50 | 187 | 3.0 | 3.0 | 0.00 | 0.00 | 0.00 | 51 | 1014.3 |
| 20260504015716 | 50 | 188 | 3.0 | 3.0 | 0.00 | 0.00 | 0.00 | 50 | 1014.4 |
| 20260504015212 | 50 | 188 | 3.0 | 3.0 | 0.00 | 0.00 | 0.00 | 50 | 1014.5 |
| 20260504014708 | 49 | 180 | 3.0 | 3.0 | 0.00 | 0.00 | 0.00 | 50 | 1014.6 |
| 20260504014205 | 50 | 185 | 3.0 | 3.0 | 0.00 | 0.00 | 0.00 | 48 | 1014.3 |
| 20260504013703 | 50 | 188 | 2.0 | 3.0 | 0.00 | 0.00 | 0.00 | 50 | 1014.4 |
| 20260504013159 | 51 | 201 | 2.0 | 3.0 | 0.00 | 0.00 | 0.00 | 47 | 1014.4 |
| 20260504012656 | 51 | 236 | 3.0 | 3.0 | 0.00 | 0.00 | 0.00 | 48 | 1014.4 |
| 20260504012154 | 51 | 173 | 1.0 | 4.0 | 0.00 | 0.00 | 0.00 | 46 | 1014.4 |
| 20260504011651 | 51 | 156 | 2.0 | 2.0 | 0.00 | 0.00 | 0.00 | 48 | 1014.5 |
| 20260504011147 | 51 | 172 | 0.0 | 3.0 | 0.00 | 0.00 | 0.00 | 48 | 1014.6 |
| 20260504010643 | 51 | 203 | 0.0 | 3.0 | 0.00 | 0.00 | 0.00 | 48 | 1014.6 |
| 20260504010139 | 51 | 173 | 2.0 | 3.0 | 0.00 | 0.00 | 0.00 | 47 | 1014.4 |
| 20260504005637 | 51 | 175 | 0.0 | 2.0 | 0.00 | 0.00 | 0.00 | 47 | 1014.5 |
| 20260504005133 | 51 | 176 | 2.0 | 3.0 | 0.00 | 0.00 | 0.00 | 47 | 1014.6 |
| 20260504004632 | 51 | 194 | 2.0 | 2.0 | 0.00 | 0.00 | 0.00 | 46 | 1014.3 |
| 20260504004128 | 52 | 183 | 2.0 | 3.0 | 0.00 | 0.00 | 0.00 | 46 | 1014.1 |
| 20260504003624 | 52 | 112 | 2.0 | 6.0 | 0.00 | 0.00 | 0.00 | 46 | 1014.3 |
| 20260504003121 | 52 | 203 | 1.0 | 3.0 | 0.00 | 0.00 | 0.00 | 47 | 1014.1 |
| 20260504002618 | 52 | 180 | 2.0 | 3.0 | 0.00 | 0.00 | 0.00 | 48 | 1014.3 |
| 20260504002116 | 52 | 169 | 1.0 | 3.0 | 0.00 | 0.00 | 0.00 | 45 | 1014.1 |
| 20260504001614 | 52 | 176 | 2.0 | 6.0 | 0.00 | 0.00 | 0.00 | 46 | 1014.1 |
| 20260504001109 | 52 | 232 | 3.0 | 4.0 | 0.00 | 0.00 | 0.00 | 47 | 1014.2 |
| 20260504000607 | 52 | 157 | 1.0 | 2.0 | 0.00 | 0.00 | 0.00 | 47 | 1014.3 |
| 20260504000104 | 52 | 160 | 1.0 | 2.0 | 0.00 | 0.00 | 0.00 | 44 | 1014.5 |
| 20260503235602 | 53 | 131 | 0.0 | 2.0 | 0.00 | 0.00 | 0.00 | 45 | 1014.2 |
| 20260503235058 | 53 | 243 | 0.0 | 3.0 | 0.00 | 0.00 | 0.00 | 44 | 1014.2 |
| 20260503234556 | 53 | 355 | 0.0 | 5.0 | 0.00 | 0.00 | 0.00 | 43 | 1014.2 |
| 20260503234054 | 53 | 180 | 1.0 | 3.0 | 0.00 | 0.00 | 0.00 | 43 | 1014.5 |
| 20260503233550 | 53 | 223 | 4.0 | 8.0 | 0.00 | 0.00 | 0.00 | 41 | 1014.3 |
| 20260503233046 | 54 | 206 | 2.0 | 7.0 | 0.00 | 0.00 | 0.00 | 42 | 1014.4 |
| 20260503232544 | 54 | 270 | 2.0 | 7.0 | 0.00 | 0.00 | 0.00 | 41 | 1014.3 |
| 20260503232041 | 54 | 109 | 1.0 | 6.0 | 0.00 | 0.00 | 0.00 | 42 | 1014.4 |
| 20260503231539 | 54 | 261 | 0.0 | 5.0 | 0.00 | 0.00 | 0.00 | 42 | 1014.4 |
| 20260503231035 | 54 | 174 | 1.0 | 4.0 | 0.00 | 0.00 | 0.00 | 43 | 1014.5 |
| 20260503230532 | 54 | 210 | 4.0 | 6.0 | 0.00 | 0.00 | 0.00 | 40 | 1014.3 |
| 20260503230030 | 55 | 249 | 3.0 | 7.0 | 0.00 | 0.00 | 0.00 | 40 | 1014.3 |
| 20260503225526 | 55 | 255 | 4.0 | 6.0 | 0.00 | 0.00 | 0.00 | 40 | 1014.5 |
| 20260503225021 | 55 | 29 | 0.0 | 8.0 | 0.00 | 0.00 | 0.00 | 40 | 1014.4 |
| 20260503224519 | 55 | 151 | 1.0 | 4.0 | 0.00 | 0.00 | 0.00 | 41 | 1014.5 |
| 20260503224017 | 56 | 251 | 0.0 | 5.0 | 0.00 | 0.00 | 0.00 | 40 | 1014.3 |
| 20260503223515 | 56 | 180 | 3.0 | 8.0 | 0.00 | 0.00 | 0.00 | 40 | 1014.5 |
| 20260503223010 | 57 | 306 | 1.0 | 6.0 | 0.00 | 0.00 | 0.00 | 42 | 1014.5 |
| 20260503222508 | 57 | 259 | 3.0 | 4.0 | 0.00 | 0.00 | 0.00 | 40 | 1014.9 |
| 20260503222006 | 57 | 213 | 2.0 | 5.0 | 0.00 | 0.00 | 0.00 | 40 | 1014.6 |
| 20260503221504 | 57 | 208 | 0.0 | 5.0 | 0.00 | 0.00 | 0.00 | 39 | 1014.5 |
| 20260503221001 | 57 | 222 | 3.0 | 4.0 | 0.00 | 0.00 | 0.00 | 40 | 1014.9 |
| 20260503220457 | 57 | 175 | 1.0 | 5.0 | 0.00 | 0.00 | 0.00 | 40 | 1014.4 |
| 20260503215954 | 57 | 172 | 0.0 | 12.0 | 0.00 | 0.00 | 0.00 | 41 | 1014.9 |
| 20260503215451 | 57 | 138 | 3.0 | 5.0 | 0.00 | 0.00 | 0.00 | 36 | 1014.8 |
| 20260503214948 | 57 | 159 | 3.0 | 7.0 | 0.00 | 0.00 | 0.00 | 39 | 1014.6 |
| 20260503214447 | 57 | 239 | 3.0 | 13.0 | 0.00 | 0.00 | 0.00 | 38 | 1014.5 |
| 20260503213943 | 58 | 264 | 3.0 | 7.0 | 0.00 | 0.00 | 0.00 | 40 | 1014.5 |
| 20260503213442 | 59 | 221 | 2.0 | 4.0 | 0.00 | 0.00 | 0.00 | 39 | 1014.9 |
| 20260503212937 | 59 | 206 | 3.0 | 8.0 | 0.00 | 0.00 | 0.00 | 39 | 1014.5 |
| 20260503212435 | 57 | 288 | 3.0 | 8.0 | 0.00 | 0.00 | 0.00 | 38 | 1014.6 |
| 20260503211932 | 57 | 183 | 3.0 | 10.0 | 0.00 | 0.00 | 0.00 | 38 | 1014.4 |
| 20260503211429 | 57 | 137 | 7.0 | 7.0 | 0.00 | 0.00 | 0.00 | 38 | 1014.4 |
| 20260503210924 | 58 | 200 | 1.0 | 6.0 | 0.00 | 0.00 | 0.00 | 44 | 1014.5 |
| 20260503210422 | 58 | 220 | 2.0 | 4.0 | 0.00 | 0.00 | 0.00 | 37 | 1014.6 |
| 20260503205917 | 58 | 135 | 2.0 | 7.0 | 0.00 | 0.00 | 0.00 | 38 | 1014.6 |
| 20260503205414 | 59 | 180 | 2.0 | 8.0 | 0.00 | 0.00 | 0.00 | 39 | 1014.6 |
| 20260503204910 | 58 | 238 | 5.0 | 16.0 | 0.00 | 0.00 | 0.00 | 39 | 1015.0 |
| 20260503204408 | 58 | 147 | 4.0 | 7.0 | 0.00 | 0.00 | 0.00 | 37 | 1015.1 |
| 20260503203905 | 57 | 177 | 2.0 | 4.0 | 0.00 | 0.00 | 0.00 | 45 | 1015.1 |
| 20260503203402 | 56 | 163 | 2.0 | 5.0 | 0.00 | 0.00 | 0.00 | 43 | 1015.0 |
| 20260503202859 | 55 | 191 | 2.0 | 6.0 | 0.00 | 0.00 | 0.00 | 42 | 1015.0 |
| 20260503202357 | 58 | 0 | 0.0 | 12.0 | 0.00 | 0.00 | 0.00 | 39 | 1015.3 |
| 20260503201855 | 58 | 195 | 2.0 | 6.0 | 0.00 | 0.00 | 0.00 | 40 | 1015.4 |
| 20260503201352 | 58 | 213 | 2.0 | 4.0 | 0.00 | 0.00 | 0.00 | 39 | 1015.3 |
| 20260503200849 | 60 | 233 | 5.0 | 6.0 | 0.00 | 0.00 | 0.00 | 39 | 1015.1 |
| 20260503200345 | 59 | 157 | 4.0 | 9.0 | 0.00 | 0.00 | 0.00 | 39 | 1015.5 |
| 20260503195842 | 59 | 355 | 1.0 | 6.0 | 0.00 | 0.00 | 0.00 | 40 | 1015.6 |
| 20260503195339 | 60 | 195 | 2.0 | 4.0 | 0.00 | 0.00 | 0.00 | 38 | 1015.3 |
| 20260503194836 | 58 | 187 | 1.0 | 5.0 | 0.00 | 0.00 | 0.00 | 37 | 1015.6 |
| 20260503194332 | 57 | 123 | 2.0 | 5.0 | 0.00 | 0.00 | 0.00 | 41 | 1015.8 |
| 20260503193829 | 58 | 149 | 3.0 | 6.0 | 0.00 | 0.00 | 0.00 | 39 | 1015.5 |
| 20260503193324 | 59 | 48 | 2.0 | 4.0 | 0.00 | 0.00 | 0.00 | 36 | 1015.9 |
| 20260503192820 | 59 | 227 | 6.0 | 9.0 | 0.00 | 0.00 | 0.00 | 37 | 1015.8 |
| 20260503192316 | 60 | 150 | 3.0 | 6.0 | 0.00 | 0.00 | 0.00 | 38 | 1016.0 |
| 20260503191812 | 58 | 133 | 3.0 | 4.0 | 0.00 | 0.00 | 0.00 | 41 | 1016.0 |
| 20260503191310 | 58 | 195 | 1.0 | 5.0 | 0.00 | 0.00 | 0.00 | 41 | 1016.1 |
| 20260503190806 | 59 | 14 | 0.0 | 5.0 | 0.00 | 0.00 | 0.00 | 36 | 1016.1 |
| 20260503190303 | 58 | 185 | 2.0 | 5.0 | 0.00 | 0.00 | 0.00 | 41 | 1016.2 |
| 20260503185801 | 57 | 251 | 3.0 | 17.0 | 0.00 | 0.00 | 0.00 | 40 | 1016.5 |
| 20260503185256 | 59 | 0 | 0.0 | 4.0 | 0.00 | 0.00 | 0.00 | 40 | 1016.3 |
| 20260503184755 | 58 | 192 | 5.0 | 6.0 | 0.00 | 0.00 | 0.00 | 40 | 1016.4 |
| 20260503184252 | 55 | 45 | 0.0 | 6.0 | 0.00 | 0.00 | 0.00 | 42 | 1016.3 |
| 20260503183748 | 57 | 232 | 7.0 | 9.0 | 0.00 | 0.00 | 0.00 | 41 | 1016.3 |
| 20260503183246 | 58 | 334 | 0.0 | 7.0 | 0.00 | 0.00 | 0.00 | 37 | 1016.4 |
| 20260503182743 | 59 | 125 | 0.0 | 8.0 | 0.00 | 0.00 | 0.00 | 41 | 1016.5 |
| 20260503182242 | 59 | 187 | 5.0 | 12.0 | 0.00 | 0.00 | 0.00 | 38 | 1016.5 |
| 20260503181739 | 60 | 106 | 0.0 | 4.0 | 0.00 | 0.00 | 0.00 | 36 | 1016.7 |
| 20260503181236 | 58 | 270 | 0.0 | 3.0 | 0.00 | 0.00 | 0.00 | 39 | 1016.7 |
| 20260503180732 | 57 | 204 | 5.0 | 5.0 | 0.00 | 0.00 | 0.00 | 43 | 1016.6 |
| 20260503180231 | 57 | 339 | 3.0 | 5.0 | 0.00 | 0.00 | 0.00 | 41 | 1016.7 |
| 20260503175727 | 55 | 293 | 5.0 | 6.0 | 0.00 | 0.00 | 0.00 | 41 | 1016.7 |
| 20260503175225 | 56 | 293 | 3.0 | 4.0 | 0.00 | 0.00 | 0.00 | 39 | 1016.7 |
| 20260503174721 | 55 | 31 | 4.0 | 7.0 | 0.00 | 0.00 | 0.00 | 40 | 1016.5 |
| 20260503174219 | 55 | 337 | 1.0 | 5.0 | 0.00 | 0.00 | 0.00 | 41 | 1017.2 |
| 20260503173714 | 55 | 32 | 1.0 | 7.0 | 0.00 | 0.00 | 0.00 | 41 | 1017.0 |
| 20260503173210 | 56 | 14 | 5.0 | 5.0 | 0.00 | 0.00 | 0.00 | 41 | 1017.3 |
| 20260503172707 | 56 | 262 | 0.0 | 5.0 | 0.00 | 0.00 | 0.00 | 42 | 1017.3 |
| 20260503172204 | 55 | 164 | 2.0 | 5.0 | 0.00 | 0.00 | 0.00 | 40 | 1017.0 |
| 20260503171700 | 55 | 283 | 0.0 | 2.0 | 0.00 | 0.00 | 0.00 | 39 | 1017.1 |
| 20260503171158 | 54 | 243 | 9.0 | 12.0 | 0.00 | 0.00 | 0.00 | 42 | 1017.2 |
| 20260503170654 | 55 | 230 | 2.0 | 8.0 | 0.00 | 0.00 | 0.00 | 46 | 1017.3 |
| 20260503170151 | 55 | 263 | 3.0 | 7.0 | 0.00 | 0.00 | 0.00 | 47 | 1017.3 |
| 20260503160113 | 52 | 130 | 5.0 | 6.0 | 0.00 | 0.00 | 0.00 | 42 | 1018.2 |
| 20260503150542 | 50 | 138 | 3.0 | 6.0 | 0.00 | 0.00 | 0.00 | 48 | 1018.2 |
| 20260503130932 | 44 | 214 | 3.0 | 3.0 | 0.00 | 0.00 | 0.00 | 70 | 1018.3 |
| 20260503130430 | 44 | 0 | 1.0 | 5.0 | 0.00 | 0.00 | 0.00 | 69 | 1018.1 |
| 20260503110823 | 36 | 202 | 3.0 | 4.0 | 0.00 | 0.00 | 0.00 | 86 | 1017.4 |
| 20260503110319 | 36 | 151 | 1.0 | 5.0 | 0.00 | 0.00 | 0.00 | 85 | 1017.4 |
| 20260503100246 | 35 | 270 | 0.0 | 4.0 | 0.00 | 0.00 | 0.00 | 87 | 1016.4 |
| 20260503090205 | 34 | 133 | 3.0 | 4.0 | 0.00 | 0.00 | 0.00 | 89 | 1016.3 |